Probability
6 13 23 23 23 32 32 35 32 39 42 35 42 48 45 48 45 42 42 42 52 58 58 58 48 58 58 65 61 58 52 55 52 58 52 65 65 65 68 68 68 65 81
6 19 26 23 26 26 35 35 39 32 42 39 42 48 48 45 48 45 39 48 55 58 58 55 48 48 48 55 52 55 55 55 55 48 55 55 58 65 65 71 65 55 68
13 19 26 23 29 26 29 23 32 32 35 42 52 42 39 45 45 45 42 48 55 55 55 48 48 48 48 52 42 35 45 42 45 42 58 35 45 68 61 65 61 65 65
6 16 19 23 32 29 26 26 26 29 32 32 29 29 32 32 32 42 42 45 48 48 42 52 45 45 52 45 32 26 29 29 39 35 23 23 19 61 61 61 52 58 55
10 16 19 23 26 19 23 23 23 26 32 26 26 23 26 29 26 29 26 42 39 32 32 39 42 45 32 26 26 19 23 32 32 16 13 13 16 45 52 52 52 52 48
10 16 19 19 19 23 23 23 23 23 26 19 26 26 29 26 23 32 23 26 26 26 26 32 23 26 29 26 26 19 26 23 16 10 13 13 16 45 48 48 48 48 45
13 10 13 19 19 19 16 19 23 26 26 23 19 23 29 26 26 32 29 26 26 23 23 23 16 16 13 10 16 19 23 19 3 6 10 13 26 39 35 32 32 39 39
10 3 13 16 19 23 26 23 19 26 19 23 23 26 29 29 32 39 29 23 23 23 23 19 10 3 3 6 3 10 13 10 3 3 6 6 29 35 32 32 32 26 29
6 3 3 13 16 23 29 26 16 16 19 26 29 29 26 29 32 29 29 29 23 23 19 6 3 3 3 3 10 10 6 13 0 3 3 6 19 23 26 19 26 26 26
3 3 3 6 10 13 16 23 26 26 19 26 32 29 32 32 26 29 29 26 19 13 6 6 6 3 6 6 10 13 13 3 0 3 3 10 26 23 19 16 16 19 19
0 3 3 3 6 10 10 16 26 26 19 23 26 29 16 3 0 3 10 23 16 13 6 6 6 3 0 3 6 13 6 3 0 0 6 13 13 16 16 16 23 19 19
3 3 6 3 3 6 3 13 16 10 13 6 6 3 3 3 3 0 19 16 16 6 6 6 3 3 3 0 3 6 0 0 0 0 6 13 6 6 10 16 16 19 19
6 6 6 6 3 3 3 6 6 6 10 10 3 10 10 3 0 0 0 3 6 6 3 0 0 0 0 0 0 0 0 0 0 0 6 10 10 6 10 13 13 16 19
6 6 6 6 3 3 3 6 6 6 6 10 3 6 3 3 0 0 0 0 3 3 3 0 0 0 0 0 0 0 0 0 0 3 3 13 10 10 13 13 13 16 16
3 6 6 6 3 3 6 3 0 3 6 3 3 0 3 3 0 0 0 0 0 0 0 0 0 0 0 0 0 0 0 0 0 3 3 10 10 10 13 13 13 13 13
0 3 6 6 6 3 6 0 0 6 3 0 3 3 3 0 0 0 0 0 0 0 0 0 0 0 0 0 0 0 0 0 0 0 0 0 6 10 10 10 10 13 13
0 3 3 3 6 3 3 0 0 0 0 0 3 0 0 0 0 0 0 0 0 0 0 0 0 0 0 0 0 3 0 0 3 0 0 0 0 3 3 6 3 10 10
0 0 0 0 3 3 0 0 0 0 0 0 0 0 0 0 0 0 0 0 0 0 0 0 0 0 0 0 0 0 0 0 0 0 0 0 0 0 0 3 6 6 6
0 0 0 6 6 3 0 0 0 0 0 0 0 0 0 0 0 0 0 0 0 0 0 0 0 0 0 0 0 0 3 0 0 0 0 0 0 0 0 0 3 3 0
3 0 3 10 10 0 0 0 0 0 0 0 0 0 0 0 0 6 3 0 0 0 0 0 0 0 0 0 3 3 3 3 0 0 0 0 0 0 0 0 0 0 0
0 0 10 6 10 6 6 3 0 0 0 0 0 0 0 0 0 0 0 0 0 0 0 0 3 0 3 0 0 0 3 3 0 0 0 0 0 0 0 0 0 0 0
0 3 3 3 3 3 6 6 3 3 0 0 0 0 0 0 0 0 0 0 6 3 0 0 3 0 0 0 0 0 0 0 0 0 0 0 0 0 0 0 0 0 0
3 3 3 3 3 3 10 3 3 6 0 0 0 0 0 0 0 0 0 3 3 3 3 0 0 0 0 0 0 0 0 0 0 0 0 0 0 0 0 0 0 0 0
6 6 3 3 3 6 6 6 6 6 3 3 3 0 0 0 0 0 0 0 0 0 0 0 0 0 0 3 3 0 0 0 0 0 0 0 0 0 0 0 0 0 0
10 6 3 3 6 6 10 10 10 6 3 0 3 3 0 0 0 0 0 0 0 0 0 0 0 0 0 3 0 0 0 0 0 0 0 0 0 0 0 0 0 0 0
10 16 6 3 6 6 6 10 6 6 3 3 3 0 0 0 0 0 0 0 0 0 0 0 0 0 0 0 0 0 0 0 0 0 0 0 0 0 0 0 0 0 0
Height
5868 5868 5867 5867 5867 5867 5867 5866 5866 5866 5866 5866 5865 5865 5865 5865 5865 5865 5865 5865 5865 5865 5865 5864 5863 5861 5858 5856 5859 5863 5866 5868 5869 5870 5871 5872 5872 5873 5874 5875 5876 5876 5877
5868 5867 5867 5867 5866 5866 5866 5866 5866 5865 5865 5865 5865 5865 5864 5864 5864 5865 5865 5865 5865 5865 5864 5864 5863 5863 5862 5861 5862 5864 5866 5868 5869 5870 5871 5871 5872 5873 5874 5875 5876 5876 5877
5867 5866 5866 5866 5865 5865 5865 5865 5865 5865 5864 5864 5864 5864 5864 5864 5864 5864 5864 5864 5864 5864 5864 5864 5864 5863 5863 5864 5864 5865 5866 5867 5868 5869 5870 5871 5872 5873 5873 5874 5875 5876 5876
5866 5865 5865 5865 5865 5864 5864 5864 5864 5864 5864 5864 5863 5863 5863 5863 5863 5863 5863 5863 5863 5863 5863 5863 5863 5864 5864 5864 5865 5865 5866 5867 5868 5868 5869 5870 5871 5872 5872 5873 5874 5875 5875
5865 5865 5864 5864 5864 5863 5863 5863 5863 5863 5863 5863 5863 5862 5862 5862 5862 5862 5862 5862 5862 5863 5863 5863 5863 5863 5863 5864 5864 5865 5865 5866 5867 5868 5869 5869 5870 5870 5871 5872 5873 5873 5874
5865 5864 5864 5863 5863 5863 5862 5862 5862 5862 5862 5862 5861 5861 5861 5861 5861 5861 5861 5861 5861 5862 5862 5862 5862 5862 5862 5863 5863 5864 5864 5865 5866 5867 5867 5868 5869 5869 5870 5871 5871 5872 5872
5864 5863 5863 5862 5862 5862 5861 5861 5861 5861 5860 5860 5860 5860 5860 5860 5859 5859 5859 5860 5860 5860 5860 5860 5861 5861 5861 5861 5862 5862 5863 5864 5865 5865 5866 5867 5867 5868 5868 5869 5869 5870 5871
5863 5863 5862 5862 5861 5861 5860 5860 5860 5860 5859 5859 5859 5859 5858 5858 5858 5858 5858 5858 5858 5858 5859 5859 5859 5859 5860 5860 5860 5861 5861 5862 5863 5864 5864 5865 5865 5866 5866 5867 5867 5868 5869
5863 5862 5861 5861 5860 5860 5859 5859 5859 5858 5858 5858 5857 5857 5857 5857 5856 5856 5856 5856 5856 5856 5857 5857 5857 5857 5858 5858 5859 5859 5860 5860 5861 5862 5862 5863 5864 5864 5864 5865 5866 5866 5867
5861 5861 5860 5860 5859 5859 5858 5858 5857 5857 5857 5856 5856 5856 5855 5855 5855 5854 5854 5854 5854 5854 5854 5854 5855 5855 5856 5856 5857 5857 5858 5858 5859 5860 5860 5861 5861 5862 5862 5863 5863 5864 5865
5860 5860 5859 5859 5858 5857 5857 5856 5856 5856 5855 5855 5854 5854 5854 5853 5853 5852 5852 5852 5852 5852 5852 5852 5852 5853 5854 5854 5855 5855 5856 5856 5857 5857 5857 5858 5858 5859 5860 5860 5861 5862 5862
5859 5858 5858 5857 5857 5856 5856 5855 5855 5854 5853 5853 5853 5852 5852 5852 5851 5851 5851 5850 5850 5850 5850 5851 5851 5851 5851 5852 5852 5853 5854 5854 5854 5854 5855 5854 5854 5855 5857 5858 5858 5859 5860
5857 5857 5856 5856 5855 5855 5854 5854 5853 5853 5852 5851 5851 5850 5850 5850 5849 5849 5849 5848 5848 5848 5848 5849 5849 5849 5850 5850 5850 5851 5851 5851 5852 5852 5852 5850 5849 5851 5854 5855 5856 5857 5857
5856 5855 5855 5854 5854 5853 5853 5852 5852 5851 5850 5850 5849 5848 5848 5848 5847 5847 5847 5847 5847 5847 5847 5847 5847 5847 5848 5848 5848 5849 5849 5849 5849 5849 5849 5847 5846 5849 5851 5853 5854 5855 5855
5854 5854 5853 5852 5852 5852 5851 5851 5850 5849 5849 5848 5847 5847 5846 5846 5845 5845 5845 5845 5845 5845 5845 5845 5846 5846 5846 5846 5846 5847 5847 5847 5847 5847 5848 5847 5847 5848 5850 5851 5852 5852 5853
5853 5852 5851 5851 5850 5850 5849 5849 5848 5847 5847 5846 5845 5845 5844 5844 5843 5843 5843 5843 5843 5843 5843 5843 5844 5844 5844 5844 5844 5844 5844 5845 5845 5846 5846 5846 5847 5848 5848 5849 5850 5850 5850
5851 5851 5850 5849 5849 5848 5847 5847 5846 5846 5845 5844 5843 5843 5842 5842 5841 5841 5841 5841 5841 5841 5841 5841 5842 5842 5842 5842 5842 5843 5843 5843 5844 5844 5844 5845 5845 5846 5846 5847 5847 5848 5848
5850 5849 5849 5848 5847 5846 5846 5845 5844 5844 5843 5842 5841 5841 5840 5840 5840 5839 5840 5840 5840 5839 5839 5840 5840 5840 5840 5840 5841 5841 5841 5841 5842 5842 5842 5843 5843 5844 5844 5844 5845 5845 5845
5849 5848 5847 5846 5846 5845 5844 5843 5843 5842 5841 5840 5839 5839 5838 5838 5838 5838 5838 5838 5838 5838 5838 5838 5838 5838 5838 5838 5839 5839 5839 5839 5839 5840 5840 5840 5841 5841 5841 5842 5842 5843 5843
5847 5846 5846 5845 5844 5843 5842 5842 5841 5840 5839 5839 5838 5837 5837 5836 5836 5836 5836 5836 5836 5836 5836 5836 5836 5836 5836 5836 5837 5837 5837 5837 5837 5837 5837 5838 5838 5839 5839 5840 5840 5840 5840
5846 5845 5844 5843 5843 5842 5841 5840 5839 5839 5838 5837 5836 5836 5835 5835 5834 5834 5834 5834 5834 5834 5834 5834 5834 5834 5834 5834 5835 5835 5835 5835 5835 5835 5835 5835 5836 5836 5836 5837 5837 5837 5837
5844 5843 5843 5842 5841 5840 5839 5838 5838 5837 5836 5836 5835 5834 5834 5833 5833 5833 5833 5833 5833 5833 5833 5833 5832 5833 5833 5833 5833 5833 5833 5834 5833 5833 5833 5833 5834 5834 5834 5834 5834 5835 5835
5842 5842 5841 5840 5839 5839 5838 5837 5836 5836 5835 5834 5834 5833 5833 5832 5832 5832 5832 5832 5832 5831 5831 5831 5831 5831 5831 5831 5831 5831 5831 5831 5831 5831 5831 5831 5831 5831 5831 5831 5832 5832 5832
5841 5840 5839 5838 5838 5837 5837 5836 5835 5834 5834 5833 5832 5832 5831 5831 5831 5830 5830 5830 5830 5830 5830 5829 5829 5829 5829 5829 5829 5829 5829 5829 5829 5829 5830 5829 5829 5829 5829 5829 5829 5829 5829
5839 5838 5837 5836 5836 5835 5835 5834 5834 5833 5832 5832 5831 5830 5830 5829 5829 5829 5829 5829 5828 5828 5828 5828 5828 5827 5827 5827 5827 5827 5827 5827 5827 5827 5827 5827 5827 5827 5827 5827 5827 5827 5826
5837 5836 5835 5835 5834 5834 5833 5833 5832 5832 5831 5830 5830 5829 5828 5828 5828 5828 5827 5827 5827 5826 5826 5826 5826 5826 5825 5825 5825 5825 5825 5825 5825 5825 5825 5825 5825 5825 5824 5824 5824 5824 5824
Wind_Speed
5 5 5 6 5 5 5 4 5 5 5 5 5 5 5 4 5 4 4 3 3 3 3 2 2 1 2 5 7 7 7 6 6 5 5 5 5 4 4 4 4 3 3
6 6 6 6 6 6 6 5 4 5 5 5 6 5 5 6 6 6 5 4 4 4 4 3 2 2 2 4 6 6 6 6 6 6 5 6 5 5 5 4 5 5 4
6 6 6 6 6 6 6 6 5 5 5 5 6 6 6 6 6 6 5 5 5 5 4 4 3 3 4 4 5 6 6 7 7 7 6 6 6 6 6 5 5 5 6
6 6 6 7 7 7 7 7 6 6 6 6 7 7 7 7 7 6 6 6 5 4 4 4 4 4 5 6 7 7 7 7 8 8 8 7 7 7 7 6 6 6 7
6 7 7 7 7 7 7 7 7 7 7 7 7 7 7 7 7 7 7 7 6 6 5 4 5 6 6 7 8 9 9 9 9 9 9 8 8 8 8 8 8 8 7
7 7 7 7 7 7 7 6 6 6 7 7 7 7 7 7 8 8 8 8 8 7 6 5 5 6 6 7 8 9 10 10 10 10 10 10 9 9 9 9 9 9 8
6 6 6 7 7 7 7 6 7 7 7 7 8 8 7 7 8 9 9 9 8 8 8 7 7 6 6 6 7 8 9 9 10 10 11 12 11 10 9 10 10 9 9
6 6 7 7 7 7 7 7 7 8 8 8 8 8 8 9 9 9 9 9 9 9 8 8 8 8 6 6 7 7 9 9 9 10 11 11 11 11 11 10 10 10 10
7 7 7 7 7 7 8 8 8 8 8 8 8 8 9 9 9 10 10 10 10 10 10 9 8 9 9 8 8 8 9 9 10 11 10 11 11 11 11 11 11 11 11
8 8 8 8 8 8 8 8 8 8 9 9 9 9 9 9 9 10 10 10 10 10 10 10 10 9 9 9 9 9 10 10 11 11 12 12 11 12 12 12 12 13 13
9 9 8 8 8 9 9 9 9 9 9 10 10 10 10 9 9 9 9 10 10 10 11 10 10 9 9 9 10 10 11 11 11 11 12 12 12 12 12 12 12 12 12
10 9 9 9 9 9 9 9 9 10 10 10 10 10 10 9 9 9 9 9 9 9 10 10 11 10 10 9 10 10 11 12 11 11 11 13 13 13 13 13 12 11 11
10 10 10 10 10 10 10 10 10 10 10 10 10 10 10 10 10 10 9 9 9 9 9 10 10 10 10 10 10 10 11 11 11 11 11 12 12 12 12 12 11 11 11
10 10 10 10 10 11 11 11 11 10 10 11 10 10 10 10 11 11 10 9 9 9 9 9 9 10 10 11 11 10 10 11 11 10 10 10 10 10 11 11 11 11 11
10 10 10 10 10 11 11 11 11 11 11 11 11 10 10 10 10 10 10 10 10 10 10 9 10 10 10 10 11 10 10 10 10 10 10 10 9 10 10 10 10 11 12
10 10 10 10 11 11 11 11 11 11 11 10 10 10 10 9 9 9 9 9 9 10 10 10 10 10 10 10 10 10 10 9 9 10 10 10 10 10 11 11 11 12 12
10 10 10 10 10 11 11 11 11 11 11 11 11 10 10 9 9 8 8 9 9 9 9 9 9 10 10 10 10 10 10 10 10 10 10 11 11 11 11 11 11 12 12
10 10 10 10 10 10 11 11 10 10 10 10 10 10 10 9 9 9 8 8 8 9 8 9 10 10 10 10 10 11 10 11 11 11 11 11 12 12 11 11 11 11 11
10 10 10 11 11 11 11 11 11 10 10 10 10 10 9 9 9 8 8 8 8 8 8 9 9 10 10 10 10 10 10 11 11 12 12 11 11 11 10 10 11 11 11
10 10 11 11 10 11 11 11 10 10 10 10 10 9 9 9 8 8 8 8 8 8 8 9 9 9 9 9 9 9 10 11 11 11 11 11 10 10 10 10 11 11 11
10 10 10 10 10 10 11 11 10 9 10 10 9 9 9 8 8 8 8 8 8 8 9 9 9 9 9 9 9 9 10 10 10 10 10 10 10 10 10 11 11 11 11
11 11 10 10 10 10 10 10 9 9 9 8 8 8 8 8 7 7 7 8 8 8 8 8 8 8 8 9 9 9 9 10 10 9 9 10 10 10 11 11 11 11 12
11 11 10 10 10 10 9 9 9 8 8 8 7 8 8 7 7 7 7 7 8 8 8 8 8 7 8 8 8 8 9 9 9 9 9 9 9 9 10 12 11 11 12
10 10 10 10 10 10 9 9 9 8 8 7 7 8 7 7 7 7 7 8 8 8 8 8 8 7 8 8 9 9 9 9 8 9 9 9 9 9 10 10 10 11 10
11 11 10 10 10 10 9 9 9 9 8 8 7 7 7 7 7 7 7 8 8 8 8 8 8 8 8 8 8 8 9 9 9 10 10 9 9 9 9 9 9 9 10
12 11 11 10 10 10 9 9 9 9 8 8 7 8 8 8 8 8 8 8 8 8 8 8 8 8 9 9 8 8 9 9 10 9 10 10 9 9 9 9 9 9 10
Wind_Direction
301 300 301 303 301 301 298 295 290 278 278 276 279 281 278 282 281 288 294 283 270 272 283 300 257 222 165 176 185 198 203 201 208 201 196 193 193 192 191 188 190 195 196
303 304 299 295 292 296 299 300 294 281 278 281 281 278 279 285 287 288 288 283 278 276 280 282 258 239 188 172 190 199 206 212 213 213 211 206 207 211 213 209 210 217 222
302 303 302 296 295 295 296 292 289 285 288 290 295 292 288 288 286 287 282 276 280 276 271 267 253 243 227 215 204 206 213 219 221 223 223 222 220 222 223 227 230 234 237
304 306 306 301 296 293 291 288 287 290 299 300 297 291 289 289 286 283 280 282 285 286 280 272 256 247 239 234 226 223 224 229 231 231 232 232 231 233 233 238 241 244 246
306 308 309 305 299 297 292 289 291 293 296 297 298 292 288 289 290 287 281 279 277 278 275 272 264 258 247 237 232 229 229 233 234 236 236 236 238 240 242 248 246 247 251
307 307 309 310 304 300 296 292 293 292 291 291 293 293 290 289 290 288 283 281 278 274 271 271 261 259 255 245 240 237 234 234 233 235 237 237 239 246 246 247 249 253 258
310 306 306 308 306 303 299 293 291 294 294 290 290 290 289 288 286 285 281 282 281 277 275 272 261 252 248 245 244 239 236 236 237 236 239 240 243 248 248 250 250 251 256
310 305 303 304 305 302 298 294 291 292 293 290 289 291 291 288 285 282 283 280 280 276 273 274 265 256 257 252 243 236 238 243 241 243 243 242 246 251 254 254 255 253 257
306 303 302 302 302 300 298 294 292 295 295 294 293 291 291 291 287 283 280 280 280 276 271 268 264 259 257 254 250 246 248 249 249 251 251 249 252 253 256 259 260 259 258
303 303 301 300 301 300 299 296 295 297 298 296 294 289 289 290 289 287 283 280 279 275 270 268 266 261 261 259 254 250 252 258 258 257 256 255 254 254 257 259 260 261 259
300 300 301 301 303 303 301 300 300 301 300 297 297 291 289 289 289 287 286 282 279 275 271 268 266 259 266 261 258 254 256 261 261 262 263 262 263 262 260 260 261 260 261
301 299 300 302 303 305 306 306 303 302 300 298 293 292 288 285 285 288 288 286 285 281 271 267 267 265 267 259 259 258 258 261 263 264 266 268 265 264 263 262 260 260 261
302 300 297 300 302 302 305 308 307 305 301 299 296 292 289 287 287 285 288 287 286 284 278 269 267 269 270 266 266 264 263 262 263 264 270 272 262 257 258 260 263 263 265
305 300 300 298 300 300 303 305 307 307 304 302 299 295 292 289 292 287 286 285 284 286 282 275 273 272 272 273 274 268 264 261 262 264 268 270 258 252 253 254 260 264 267
305 301 301 300 299 300 301 302 303 305 306 301 299 295 293 292 293 291 287 283 284 285 284 279 278 276 275 276 278 275 266 260 263 267 266 267 261 254 252 256 263 267 267
307 303 302 303 302 301 302 302 302 303 306 302 298 295 292 292 294 291 285 282 281 282 282 281 278 278 278 276 277 276 277 271 269 271 268 267 265 261 261 264 266 269 270
311 308 306 305 304 302 302 304 304 304 303 301 298 293 291 290 291 290 285 283 282 281 280 280 279 279 278 276 275 277 277 279 276 276 274 273 270 269 269 270 269 272 271
310 310 307 306 307 306 305 307 307 306 304 302 299 296 292 289 288 286 286 286 287 281 278 279 281 279 279 278 273 272 273 273 276 276 277 277 273 274 274 273 273 276 274
309 308 306 305 306 307 307 307 307 307 305 303 300 298 294 291 289 286 287 285 285 285 282 281 282 278 278 278 274 271 273 273 275 275 277 275 274 273 272 273 275 277 279
307 306 307 307 307 308 307 307 308 308 307 304 301 297 297 293 290 287 284 284 285 283 284 283 282 279 280 277 274 272 275 278 279 279 277 273 273 273 270 272 276 278 278
308 307 308 308 308 308 306 306 307 306 305 303 300 296 297 296 292 290 288 285 287 286 286 284 281 278 278 275 275 277 277 279 282 282 280 279 277 276 274 273 277 276 275
304 304 307 308 308 307 307 305 306 307 306 304 303 300 298 295 294 295 291 286 287 290 291 289 286 282 281 274 274 277 278 278 280 282 280 277 280 279 276 277 277 276 276
301 302 304 306 306 306 307 307 306 306 308 306 302 298 297 296 293 294 294 294 294 294 295 295 289 285 283 280 279 283 284 281 279 283 282 281 282 280 277 277 277 279 277
301 302 302 302 303 304 307 308 306 307 309 307 302 298 297 296 293 293 293 293 293 294 296 297 293 289 285 283 284 286 285 283 280 285 286 288 285 283 283 281 283 280 278
299 300 299 300 300 300 302 300 303 307 310 308 305 300 299 299 297 293 294 292 292 293 295 298 295 294 289 286 287 288 286 282 282 285 286 290 290 289 287 286 288 285 281
295 297 297 298 298 299 299 299 301 304 308 308 305 301 298 298 299 296 295 293 294 294 294 296 295 296 294 289 285 287 285 284 286 287 286 287 290 291 293 296 292 288 286